This is the latest recevied weather packets stored in our database for station/object BM2MWA-13. If no packets are shown the sender has not sent any weather packets the latest 10 day(s).
| Time | Temp. | Humidity | Pressure | Rain* | Wind** | Luminosity | Snow |
|---|---|---|---|---|---|---|---|
| 1777831024 | 22.22° C | 74% | 1011.3 hPa | 0 mm | - | - | - |
| 1777830423 | 22.22° C | 76% | 1011.3 hPa | 0 mm | - | - | - |
| 1777829823 | 22.22° C | 76% | 1011 hPa | 0 mm | - | - | - |
| 1777829227 | 22.22° C | 76% | 1011 hPa | 0 mm | - | - | - |
| 1777828624 | 22.22° C | 76% | 1011.1 hPa | 0 mm | - | - | - |
| 1777828024 | 22.22° C | 77% | 1011 hPa | 0 mm | - | - | - |
| 1777827423 | 22.22° C | 76% | 1010.8 hPa | 0 mm | - | - | - |
| 1777826824 | 22.22° C | 75% | 1010.8 hPa | 0 mm | - | - | - |
| 1777826223 | 22.78° C | 76% | 1010.8 hPa | 0 mm | - | - | - |
| 1777825624 | 22.78° C | 76% | 1010.6 hPa | 0 mm | - | - | - |
| 1777825024 | 22.78° C | 76% | 1010.7 hPa | 0 mm | - | - | - |
| 1777824424 | 23.33° C | 75% | 1010.5 hPa | 0 mm | - | - | - |
| 1777823823 | 23.33° C | 75% | 1010.5 hPa | 0 mm | - | - | - |
| 1777823224 | 23.89° C | 78% | 1010.3 hPa | 0 mm | - | - | - |
| 1777822623 | 24.44° C | 79% | 1010.2 hPa | 0 mm | - | - | - |
| 1777822023 | 24.44° C | 80% | 1010 hPa | 0 mm | - | - | - |
| 1777821423 | 24.44° C | 81% | 1010 hPa | 0 mm | - | - | - |
| 1777820824 | 25.56° C | 79% | 1009.8 hPa | 0 mm | - | - | - |
| 1777820224 | 26.11° C | 77% | 1009.8 hPa | 0 mm | - | - | - |
| 1777819624 | 26.11° C | 78% | 1009.8 hPa | 0 mm | - | - | - |
| 1777819025 | 26.11° C | 78% | 1009.6 hPa | 0 mm | - | - | - |
| 1777818424 | 26.11° C | 79% | 1009.4 hPa | 0 mm | - | - | - |
| 1777817823 | 26.11° C | 78% | 1009 hPa | 0 mm | - | - | - |
| 1777817223 | 26.11° C | 77% | 1009.1 hPa | 0 mm | - | - | - |
| 1777816624 | 26.11° C | 77% | 1008.9 hPa | 0 mm | - | - | - |
* Rain latest hour (hover to see other rain measurements)
** Current wind speed in m/s (hover to see current wind gust speed)